#timestamp,LO_Frequency,Hit,StdDev 
1617879615.2,286046997.4,N
1617879635.0,286046996.9,N
1617879635.9,286046996.9,N
1617879655.8,286046995.1,N
1617879705.6,286046995.7,E
1617879715.6,286046999.3,N
1617879735.4,286047000.2,P
1617879755.2,286047004.1,P
1617879775.1,286047001.4,N
1617879776.0,286047001.4,N
1617879795.8,286047002.2,N
1617879815.7,286047005.3,Y
1617879835.5,286047005.2,P
1617879855.3,286047005.9,P
1617879875.2,286047001.6,N
1617879895.0,286046999.9,N
1617879895.9,286046999.9,N
1617879915.7,286047000.1,N
1617879935.6,286047000.0,N
1617879955.4,286047002.4,N
1617879975.3,286047000.3,N
1617879995.1,286047000.8,N
1617879996.0,286047000.8,N
1617880015.8,286046999.4,N
1617880035.7,286046997.4,N
1617880055.5,286046998.6,N
1617880075.3,286047000.2,N
1617880095.2,286047000.1,N
1617880115.0,286047002.0,N
1617880115.9,286047002.0,N
1617880135.8,286047002.0,N
1617880155.6,286047001.1,N
1617880175.4,286047000.7,N
1617880195.3,286047002.5,N
1617880215.1,286047000.3,N
1617880235.8,286046999.3,N
1617880255.7,286046999.5,N
1617880275.5,286047001.0,N
1617880295.4,286046999.3,N
1617880315.2,286046997.7,N
1617880335.0,286046997.4,N
1617880335.9,286046997.4,N
1617880355.8,286046996.7,N
1617880375.6,286046997.3,N
1617880395.4,286046996.6,N
1617880415.3,286046997.0,N
1617880435.1,286046995.4,N
1617880455.9,286046995.1,N
1617880475.7,286046995.7,N
1617880495.5,286046997.9,N
1617880515.4,286046995.0,N
1617880535.2,286046997.7,N
1617880555.0,286046997.7,N
1617880555.9,286046997.7,N
1617880575.8,286046997.0,N
1617880595.6,286046999.0,N
1617880615.5,286046999.2,N
1617880635.3,286046998.6,N
1617880655.1,286046998.7,N
1617880675.9,286046998.9,N
1617880695.7,286046998.4,N
1617880715.6,286047001.2,N
1617880735.4,286046999.1,N
1617880755.2,286047000.9,N
1617880775.1,286047000.0,N
1617880776.0,286047000.0,N
1617880795.8,286046996.8,N
1617880815.7,286047002.2,N
1617880835.5,286047008.7,Y
1617880855.3,286047010.1,P
1617880875.2,286047010.0,N
1617880895.0,286047010.4,N
1617880895.9,286047010.4,N
1617880915.8,286047006.5,N
1617880935.6,286047010.8,N
1617880955.4,286047006.1,N
1617880975.3,286047005.0,N
1617880995.1,286047005.4,N
1617881015.8,286047005.9,N
1617881035.7,286047004.1,N
1617881055.5,286047005.6,N
1617881075.4,286047007.1,N
1617881095.2,286047010.8,Y
1617881115.0,286047002.5,P
1617881115.9,286047002.5,N
1617881135.8,286047001.8,N
1617881155.6,286047002.5,N
1617881175.4,286047002.2,N
1617881195.3,286047002.0,N
1617881215.1,286047002.1,N
1617881235.9,286046999.9,N
1617881255.7,286047001.1,N
1617881275.5,286046998.5,N
1617881295.4,286047000.3,N
1617881315.2,286046996.8,N
1617881335.0,286046998.2,N
1617881335.9,286046998.2,N
1617881355.8,286046998.9,N
1617881375.6,286046999.3,N
1617881395.5,286047001.4,N
1617881415.3,286047002.2,N
1617881435.1,286047003.3,N
1617881455.9,286047003.7,N
1617881475.7,286047000.3,N
1617881495.5,286046998.4,N
1617881515.4,286047000.1,N
1617881535.2,286046998.2,N
1617881555.1,286046999.1,N
1617881556.0,286046999.1,N
1617881575.8,286046997.1,N
1617881595.6,286046996.8,N
1617881615.5,286047001.0,N
1617881635.3,286047000.7,N
1617881655.1,286047001.6,N
1617881675.9,286047005.6,N
1617881695.7,286047003.6,N
1617881715.6,286047001.4,N
1617881735.4,286047002.0,N
1617881755.2,286047000.4,N
1617881775.1,286047001.7,N
1617881776.0,286047001.7,N
1617881795.8,286047004.1,N
1617881815.6,286047005.7,N
1617881835.5,286047005.3,N
1617881855.3,286047002.1,N
1617881875.2,286047000.7,N
1617881895.9,286046999.3,N
1617881915.7,286047000.1,N
1617881935.6,286047001.4,N
1617881955.4,286047001.5,N
1617881975.3,286047004.1,N
1617881995.1,286047004.3,N
1617881996.0,286047004.3,N
1617882015.8,286047001.7,N
1617882035.7,286047001.9,N
1617882055.5,286047000.5,N
1617882075.3,286047000.0,N
1617882095.2,286047001.9,N
1617882115.0,286047004.3,N
1617882115.9,286047004.3,N
1617882135.8,286047003.1,N
1617882155.6,286047004.6,N
1617882175.4,286047005.4,N
1617882195.3,286047005.2,N
1617882215.1,286047007.4,Y
1617882235.9,286047003.0,P
1617882255.7,286047004.1,P
1617882275.5,286047001.9,P
1617882295.4,286047003.5,Y
1617882315.2,286046999.1,P
1617882335.0,286046998.1,N
1617882336.0,286046998.1,N
1617882355.8,286047001.1,N
1617882375.6,286046998.7,N
1617882395.5,286047008.2,Y
1617882415.3,286047006.7,P
1617882435.1,286047002.1,N
1617882455.9,286047000.7,N
1617882475.7,286047001.2,N
1617882495.6,286046997.6,N
1617882515.4,286046995.0,N
1617882535.2,286046996.4,N
1617882555.1,286046993.3,N
1617882556.0,286046993.3,N
1617882575.8,286046994.6,N
1617882595.6,286046992.5,N
1617882615.5,286046992.5,N
1617882635.3,286046988.9,N
1617882655.2,286046985.4,Y
1617882675.9,286046991.0,P
1617882695.7,286046992.9,N
1617882715.6,286046989.9,P
1617882735.4,286046987.9,Y
1617882755.3,286046995.2,P
1617882775.1,286046994.6,P
1617882776.0,286046994.6,P
1617882795.8,286046992.8,Y
1617882815.7,286046996.5,P
1617882835.5,286046999.2,N
1617882855.4,286046999.1,N
1617882875.2,286046996.5,N
1617882895.1,286046995.0,N
1617882896.0,286046995.0,N
1617882915.8,286046996.8,N
1617882935.6,286046996.2,N
1617882955.5,286046997.3,N
1617882975.3,286046999.0,N
1617882995.1,286047001.9,N
1617883015.9,286047001.8,N
1617883035.7,286047002.8,N
1617883055.6,286047001.2,N
1617883075.4,286046995.4,N
1617883095.2,286046994.7,N
1617883115.1,286046992.3,N
1617883116.0,286046992.3,N
1617883135.8,286046992.6,N
1617883155.7,286046992.3,N
1617883175.5,286046991.4,N
1617883195.3,286046987.2,Y
